This is the latest recevied weather packets stored in our database for station/object I5EKX-13. If no packets are shown the sender has not sent any weather packets the latest 10 day(s).
| Time | Temp. | Humidity | Pressure | Rain* | Wind** | Luminosity | Snow |
|---|---|---|---|---|---|---|---|
| 1777735160 | 20.56° C | 52% | 1016.8 hPa | - | - | - | - |
| 1777733955 | 21.67° C | 53% | 1017.1 hPa | - | - | - | - |
| 1777732751 | 21.11° C | 51% | 1017.1 hPa | - | - | - | - |
| 1777730342 | 22.78° C | 46% | 1017.5 hPa | - | - | - | - |
| 1777729138 | 24.44° C | 47% | 1017.8 hPa | - | - | - | - |
| 1777727934 | 25° C | 43% | 1017.8 hPa | - | - | - | - |
| 1777725527 | 25° C | 41% | 1018.2 hPa | - | - | - | - |
| 1777724323 | 23.89° C | 43% | 1018.4 hPa | - | - | - | - |
| 1777723119 | 25.56° C | 44% | 1018.6 hPa | - | - | - | - |
| 1777721915 | 25.56° C | 37% | 1018.8 hPa | - | - | - | - |
| 1777720712 | 25° C | 37% | 1019 hPa | - | - | - | - |
| 1777718304 | 25.56° C | 36% | 1019.6 hPa | - | - | - | - |
| 1777717100 | 25° C | 40% | 1019.7 hPa | - | - | - | - |
| 1777715896 | 25° C | 41% | 1019.8 hPa | - | - | - | - |
| 1777714693 | 25° C | 40% | 1020.1 hPa | - | - | - | - |
| 1777712286 | 24.44° C | 34% | 1020.1 hPa | - | - | - | - |
| 1777711081 | 24.44° C | 32% | 1020.1 hPa | - | - | - | - |
| 1777708674 | 23.89° C | 34% | 1020.2 hPa | - | - | - | - |
| 1777707470 | 22.22° C | 38% | 1020.3 hPa | - | - | - | - |
| 1777706266 | 19.44° C | 40% | 1020.4 hPa | - | - | - | - |
| 1777705063 | 19.44° C | 42% | 1020.4 hPa | - | - | - | - |
| 1777703859 | 18.89° C | 39% | 1020.4 hPa | - | - | - | - |
| 1777702655 | 17.78° C | 42% | 1020.3 hPa | - | - | - | - |
| 1777701451 | 15.56° C | 44% | 1020.4 hPa | - | - | - | - |
| 1777700247 | 13.89° C | 50% | 1020.3 hPa | - | - | - | - |
* Rain since midnight (hover to see other rain measurements)
** Current wind speed in m/s (hover to see current wind gust speed)